Wind_Speed
45 45 43 49 49 49 46 45 50 51 36 29 28 30 33 33 32 34 34 31 30 30 31 34 34 31 33 37 39 43 46 52 52 52 59 60 58 54 54 54 55 57 51 35 24 30 44
46 45 48 51 51 49 52 48 49 51 55 39 34 32 33 33 33 35 34 32 29 28 30 31 32 30 36 37 40 45 48 52 51 54 60 60 57 52 52 55 56 56 56 36 22 26 37
45 48 50 49 51 52 54 54 56 57 54 54 47 39 33 31 34 34 33 30 29 27 28 29 33 34 34 37 40 47 50 51 53 54 60 61 58 51 51 57 56 56 55 39 19 22 32
44 47 48 50 51 52 54 55 58 59 57 58 59 59 43 35 33 33 33 29 29 28 27 27 30 30 33 38 41 44 50 51 51 55 59 63 61 60 61 60 57 56 55 42 23 16 27
43 44 47 48 50 52 54 54 54 57 58 61 63 59 61 48 35 32 32 29 29 28 26 28 29 30 34 36 39 47 50 53 51 56 59 61 63 64 61 61 59 58 57 44 25 14 23
39 41 45 48 48 53 53 51 50 56 59 63 66 68 66 60 47 34 34 31 28 26 26 29 31 31 31 32 40 47 49 52 52 57 59 61 66 67 64 63 61 60 57 50 26 12 17
40 39 43 47 48 50 53 48 50 55 59 61 64 68 68 68 69 46 37 39 28 28 23 25 28 31 29 33 40 44 49 51 50 56 57 60 65 67 65 62 62 59 55 52 34 11 11
39 39 42 45 47 47 49 52 51 55 58 58 63 66 68 69 68 60 45 38 27 26 27 26 30 34 35 36 40 44 49 49 51 55 57 59 64 68 70 61 62 61 57 53 38 16 8
36 37 42 44 46 44 47 50 52 54 57 57 62 67 70 71 63 62 50 39 28 25 27 30 31 35 36 36 40 43 46 47 53 53 55 56 61 66 68 68 67 66 58 54 38 21 4
35 34 37 45 46 46 44 47 52 56 56 57 63 66 69 72 64 64 58 40 28 26 28 31 33 36 34 35 38 41 43 46 47 52 51 54 57 64 66 70 66 64 59 50 42 25 2
32 35 34 43 47 47 48 46 50 55 54 55 61 65 63 71 68 70 61 52 37 30 26 31 32 30 34 37 43 42 46 48 48 49 48 52 56 62 61 66 61 60 60 51 45 32 10
27 36 36 39 46 48 50 48 50 55 55 58 56 62 60 67 68 65 63 53 47 36 34 35 34 34 35 38 42 45 46 47 45 49 48 50 52 57 56 59 59 56 56 54 48 42 21
31 33 36 40 46 46 50 49 52 57 58 60 59 59 61 64 63 60 59 58 52 45 40 37 41 42 40 41 46 47 47 46 46 47 51 49 50 51 53 57 60 52 53 52 46 41 32
34 35 30 37 41 46 49 51 51 55 59 57 61 59 60 59 60 60 54 52 52 51 43 39 39 44 47 47 46 46 49 47 47 44 44 46 48 47 46 51 55 50 45 42 40 33 32
39 35 33 32 38 42 49 51 49 54 58 59 62 62 60 59 54 57 59 64 55 55 45 46 44 43 47 49 51 49 50 47 48 51 47 48 47 48 44 48 52 55 41 38 34 33 26
37 36 36 38 38 39 46 46 49 51 57 61 62 63 63 59 56 59 62 59 56 51 46 52 50 50 48 44 45 48 51 52 51 55 51 50 55 50 42 45 50 54 40 36 28 24 21
39 38 41 42 42 43 43 51 51 54 56 60 63 63 65 61 61 61 66 60 52 55 55 53 55 54 54 50 48 44 47 48 53 54 49 49 52 47 39 46 46 52 44 33 27 20 17
40 43 43 42 46 51 50 49 50 56 57 57 62 62 65 64 68 65 65 63 55 54 52 58 60 60 62 54 55 49 43 44 46 45 45 48 44 45 43 46 46 49 46 36 28 19 13
46 47 45 45 49 50 55 55 55 57 55 59 61 63 63 64 68 67 70 66 58 57 55 54 57 67 62 60 61 55 42 39 42 44 44 41 41 42 46 49 47 45 43 39 28 24 19
55 52 53 50 54 51 58 58 60 58 57 61 60 64 63 68 69 70 71 69 60 59 59 59 64 64 64 64 65 63 57 41 38 39 40 39 45 42 46 45 39 38 43 34 26 26 26
60 56 55 55 59 59 59 60 60 59 62 61 64 64 66 71 70 70 70 67 65 60 65 67 66 64 67 68 70 65 61 54 44 41 42 45 47 45 36 31 38 48 43 39 32 30 27
64 64 58 59 60 55 67 66 65 62 61 64 60 67 70 69 70 73 68 73 67 64 72 69 67 67 69 70 68 69 68 61 55 46 41 39 33 36 38 37 50 45 44 40 39 32 29
63 63 63 62 65 68 69 64 60 64 64 61 65 71 72 71 69 68 68 73 72 75 76 71 71 68 69 70 72 72 70 73 63 51 46 43 42 41 47 49 46 43 43 47 45 45 44
65 66 68 68 74 73 63 66 67 67 67 66 67 71 69 70 69 71 74 76 80 78 75 74 73 70 70 74 74 73 75 75 72 68 60 54 49 46 40 43 48 50 54 53 52 51 49
72 70 66 73 73 68 67 70 71 70 67 70 71 71 67 66 67 74 76 83 85 78 74 77 73 74 77 75 74 75 77 77 78 72 68 64 63 61 54 56 58 74 71 66 61 59 57
76 73 70 67 68 70 72 72 69 70 71 67 66 66 66 69 71 80 86 83 82 76 78 77 79 83 79 73 74 76 79 74 79 75 71 67 66 68 62 72 76 81 76 73 66 62 68
82 77 73 73 70 69 69 71 68 69 67 67 67 68 72 74 81 86 86 82 80 81 81 80 83 82 79 81 78 83 82 79 80 80 70 68 69 67 70 83 86 82 76 74 69 66 68
76 75 73 72 71 68 65 67 73 76 78 77 75 76 81 80 83 90 83 79 82 82 82 86 82 85 85 87 85 87 86 85 84 83 78 74 72 76 79 92 85 85 78 72 69 70 70
81 78 78 74 76 77 75 75 79 80 80 78 81 82 86 86 88 84 82 82 84 86 89 89 88 89 91 93 94 94 90 89 87 86 81 79 80 83 97 97 92 95 82 75 70 67 70
Wind_Direction
32 33 28 22 23 23 23 22 27 21 1 342 325 312 309 309 310 308 310 305 294 293 301 304 311 315 315 326 326 323 327 333 339 338 339 342 341 342 342 339 342 343 338 325 285 247 230
30 25 25 21 20 19 20 20 18 17 18 6 351 334 317 309 310 309 311 312 303 290 298 304 304 312 317 321 323 323 329 340 342 339 342 345 346 345 348 349 347 347 343 335 295 253 232
23 23 21 17 16 14 14 13 13 16 16 12 8 356 332 319 309 311 315 312 309 305 298 297 299 307 314 320 323 327 335 342 344 341 344 346 350 351 354 354 351 351 350 341 310 260 230
21 21 19 18 15 15 13 9 12 15 14 14 7 8 357 329 315 312 318 312 308 310 305 308 310 309 311 322 324 330 335 340 346 344 348 351 355 358 1 359 354 355 354 345 328 272 231
16 16 15 16 14 12 12 10 10 10 14 12 14 9 4 357 330 318 322 321 313 309 309 301 309 315 321 323 324 330 338 342 345 345 348 354 359 3 1 360 358 356 357 356 337 288 228
10 11 9 11 11 11 12 10 9 7 9 7 12 9 7 3 353 328 326 327 318 314 318 312 307 315 324 327 327 331 340 342 343 343 346 354 359 2 2 4 2 357 359 0 351 306 227
357 3 4 5 9 9 9 7 5 3 2 3 7 5 9 7 360 346 332 329 315 316 321 319 314 318 323 322 326 334 339 340 341 342 348 354 359 2 3 2 6 1 359 2 2 334 221
348 351 358 1 3 5 3 3 360 359 360 359 360 2 3 1 359 355 344 329 320 316 318 315 319 324 322 322 329 337 336 341 342 344 347 354 357 360 3 3 6 6 359 5 2 356 209
344 346 350 353 355 357 360 358 357 356 355 356 355 358 360 0 4 4 351 347 327 316 316 323 331 331 328 328 335 335 338 341 342 346 347 353 355 357 1 3 5 3 4 359 4 4 218
339 334 342 343 346 350 352 353 355 356 350 352 352 354 354 357 359 2 2 351 341 318 322 330 333 328 326 335 333 333 333 334 341 344 348 351 353 355 358 1 1 1 4 359 9 11 345
338 335 334 339 340 344 346 347 348 352 351 349 350 350 350 353 353 358 3 2 353 336 317 325 325 324 328 328 327 330 334 335 337 344 350 351 351 351 357 2 359 360 2 4 5 16 22
328 337 327 334 336 338 341 342 342 343 347 347 348 350 348 351 352 359 4 2 356 342 325 323 323 323 322 323 325 328 333 334 339 339 341 350 349 348 352 355 0 359 359 5 4 11 19
321 326 322 326 330 335 333 336 336 338 342 343 346 347 346 349 349 354 359 5 1 355 337 325 320 322 319 319 318 321 327 327 333 336 337 343 348 348 349 351 357 357 360 359 5 6 13
312 315 319 321 327 324 330 331 332 336 334 339 340 342 346 349 346 348 355 357 360 359 349 330 317 315 313 314 314 316 321 322 324 330 333 333 341 344 344 347 351 355 356 356 1 13 18
304 302 312 309 313 319 320 323 327 327 329 332 335 337 339 339 346 346 345 348 352 359 2 357 349 333 316 310 309 306 310 312 317 324 326 328 336 338 335 342 345 351 354 356 357 3 25
299 302 309 308 311 319 315 319 320 321 322 326 329 329 332 333 337 339 340 343 342 349 357 1 358 349 337 320 310 308 305 306 312 316 320 321 324 330 329 335 339 342 345 352 357 6 9
298 301 300 304 309 314 315 317 313 316 318 323 325 325 326 327 330 335 333 337 337 338 340 345 347 357 359 346 327 306 305 306 306 313 317 317 319 326 328 330 334 335 342 341 346 357 4
296 296 301 305 306 308 311 313 311 311 314 318 320 321 321 321 324 326 329 333 333 337 338 338 342 346 351 355 350 327 309 303 306 310 309 314 316 321 325 321 326 330 332 336 333 338 346
291 291 295 304 307 308 306 312 311 309 310 314 314 316 318 316 319 321 324 329 330 334 337 341 339 338 345 356 357 343 323 309 305 305 310 317 312 316 314 316 319 322 324 327 321 322 327
288 289 293 298 300 299 296 307 308 307 308 312 310 313 313 313 314 315 319 325 325 330 334 333 335 336 340 349 353 355 352 327 309 310 310 307 306 308 309 314 310 312 317 316 315 316 310
288 287 289 294 298 303 302 305 301 302 310 312 311 311 310 310 309 312 316 320 324 326 329 331 334 334 337 341 346 352 355 348 338 321 310 304 302 306 313 308 298 305 312 312 304 299 295
288 290 293 289 292 296 293 299 297 301 309 307 309 305 308 310 307 308 312 318 320 324 326 330 331 331 333 337 341 344 351 352 348 334 321 317 309 304 302 297 301 307 309 306 299 293 287
286 287 286 290 291 294 297 291 291 302 304 304 301 303 303 305 303 305 310 313 316 320 324 326 326 327 330 335 338 341 344 346 346 347 337 331 324 305 299 302 309 314 316 316 312 308 301
282 286 292 291 292 293 288 286 293 302 300 301 298 301 302 300 299 304 308 311 314 318 320 322 322 325 327 328 333 337 340 342 341 342 342 340 336 339 321 317 316 313 309 306 301 298 295
283 286 285 286 289 286 284 287 293 301 299 297 298 301 300 298 302 305 308 308 313 316 316 318 321 322 326 327 329 333 334 337 337 334 335 336 339 334 328 323 316 317 309 299 289 286 287
279 279 282 281 284 284 287 292 296 293 295 294 295 297 298 301 301 305 308 310 310 313 314 318 318 319 324 325 327 331 330 331 332 330 327 328 327 329 321 320 315 309 302 300 285 282 280
274 278 281 283 284 283 286 291 291 292 291 293 295 295 298 299 302 307 308 307 307 310 313 314 316 318 321 322 325 328 327 327 327 327 323 322 323 315 311 314 317 314 305 297 290 284 280
275 279 282 282 284 286 284 284 285 287 290 291 293 294 297 300 302 306 307 305 307 309 311 314 316 317 318 319 322 324 325 323 322 324 321 315 310 314 309 315 316 314 307 297 290 286 284
275 277 281 277 276 282 283 280 282 285 287 290 292 295 295 299 303 304 303 303 306 309 311 312 312 313 315 318 321 321 321 320 319 321 320 315 309 306 311 316 316 317 306 298 292 288 283
Height
10796 10793 10789 10784 10780 10775 10770 10765 10757 10752 10746 10742 10737 10732 10727 10724 10721 10718 10715 10713 10709 10706 10703 10699 10695 10691 10687 10682 10677 10670 10663 10653 10640 10629 10616 10601 10585 10569 10552 10536 10521 10504 10487 10477 10469 10468 10472
10797 10794 10789 10785 10780 10775 10770 10764 10759 10752 10746 10740 10735 10729 10723 10718 10714 10711 10709 10706 10702 10700 10698 10694 10690 10685 10682 10677 10671 10664 10656 10646 10634 10623 10610 10596 10580 10564 10547 10530 10516 10501 10482 10472 10464 10462 10466
10799 10794 10790 10785 10780 10774 10768 10763 10758 10751 10745 10739 10733 10727 10721 10715 10710 10706 10703 10700 10696 10694 10691 10688 10684 10680 10676 10672 10666 10658 10649 10640 10629 10618 10605 10590 10576 10561 10544 10527 10512 10498 10483 10469 10460 10456 10460
10799 10795 10791 10786 10781 10775 10769 10762 10755 10750 10745 10740 10732 10725 10718 10711 10706 10701 10698 10695 10690 10688 10685 10681 10678 10674 10670 10666 10659 10653 10646 10636 10624 10613 10601 10586 10569 10552 10538 10526 10510 10497 10483 10467 10458 10454 10456
10799 10796 10792 10787 10782 10776 10770 10763 10756 10751 10745 10739 10731 10724 10716 10709 10702 10697 10694 10690 10686 10682 10679 10676 10673 10669 10666 10661 10654 10647 10640 10631 10621 10610 10597 10584 10569 10554 10540 10523 10508 10496 10480 10466 10458 10453 10454
10799 10796 10793 10788 10782 10776 10770 10763 10757 10751 10744 10737 10728 10722 10713 10706 10698 10693 10690 10686 10681 10677 10675 10672 10668 10665 10660 10656 10649 10643 10636 10626 10617 10607 10595 10581 10568 10554 10539 10526 10515 10497 10482 10468 10458 10454 10455
10799 10795 10791 10787 10782 10776 10770 10764 10757 10751 10743 10735 10728 10722 10712 10704 10695 10688 10684 10679 10676 10672 10670 10667 10663 10660 10656 10652 10646 10639 10631 10623 10615 10606 10593 10581 10569 10555 10543 10529 10516 10501 10487 10473 10461 10455 10456
10799 10795 10790 10786 10782 10777 10771 10765 10759 10751 10743 10736 10729 10722 10714 10706 10696 10687 10679 10673 10670 10668 10665 10663 10660 10656 10652 10647 10642 10635 10628 10620 10612 10602 10591 10580 10569 10558 10546 10531 10517 10504 10488 10478 10467 10459 10459
10797 10793 10789 10785 10781 10776 10771 10765 10759 10752 10744 10737 10729 10721 10714 10707 10698 10688 10678 10671 10667 10665 10661 10659 10656 10652 10647 10642 10637 10631 10624 10617 10609 10601 10591 10581 10570 10559 10547 10531 10517 10508 10495 10484 10474 10465 10462
10796 10792 10787 10783 10779 10774 10769 10764 10758 10752 10745 10738 10729 10721 10712 10704 10698 10689 10678 10669 10664 10662 10659 10656 10651 10648 10644 10639 10633 10627 10622 10615 10609 10601 10591 10581 10572 10561 10549 10536 10526 10516 10505 10491 10481 10472 10467
10793 10789 10785 10780 10776 10772 10767 10762 10756 10751 10745 10738 10730 10722 10713 10704 10695 10686 10678 10669 10664 10660 10658 10652 10648 10644 10640 10636 10630 10624 10618 10611 10604 10598 10591 10580 10570 10561 10552 10545 10534 10521 10511 10500 10488 10479 10474
10790 10787 10783 10778 10773 10768 10763 10759 10754 10748 10744 10737 10730 10723 10714 10705 10694 10685 10677 10670 10664 10659 10655 10650 10645 10640 10636 10631 10625 10619 10614 10607 10600 10593 10588 10581 10572 10564 10556 10548 10539 10529 10518 10509 10497 10489 10482
10787 10784 10780 10776 10771 10764 10759 10754 10749 10744 10739 10733 10727 10722 10715 10705 10695 10687 10679 10671 10665 10658 10653 10648 10641 10636 10632 10628 10621 10615 10610 10604 10598 10591 10582 10579 10573 10565 10556 10548 10542 10532 10523 10514 10508 10498 10492
10782 10779 10776 10773 10769 10763 10756 10751 10744 10739 10734 10730 10725 10719 10715 10709 10699 10689 10683 10675 10667 10659 10650 10644 10639 10633 10627 10623 10616 10611 10604 10599 10593 10589 10582 10576 10573 10566 10559 10552 10546 10540 10535 10527 10519 10513 10504
10777 10774 10770 10767 10764 10760 10754 10747 10742 10736 10729 10725 10720 10715 10710 10705 10700 10692 10682 10674 10666 10658 10651 10644 10636 10629 10621 10615 10609 10604 10599 10593 10588 10584 10579 10573 10569 10565 10559 10552 10546 10542 10536 10532 10524 10519 10515
10770 10769 10765 10761 10757 10754 10750 10745 10739 10733 10726 10720 10716 10709 10705 10700 10696 10690 10683 10673 10665 10658 10651 10643 10635 10625 10615 10606 10600 10595 10590 10585 10581 10577 10574 10568 10562 10561 10555 10551 10546 10540 10537 10533 10530 10523 10521
10762 10761 10759 10755 10750 10747 10744 10740 10734 10728 10721 10715 10709 10703 10697 10693 10690 10685 10679 10672 10664 10655 10646 10639 10630 10620 10610 10600 10591 10585 10581 10577 10573 10570 10567 10563 10556 10554 10552 10546 10544 10538 10536 10533 10530 10527 10522
10754 10753 10751 10748 10743 10739 10736 10733 10728 10722 10717 10710 10704 10698 10689 10684 10680 10677 10674 10667 10659 10651 10644 10634 10625 10616 10606 10595 10586 10576 10570 10566 10563 10561 10559 10556 10550 10546 10544 10542 10539 10537 10530 10529 10527 10525 10524
10747 10745 10742 10739 10736 10731 10726 10723 10720 10715 10709 10705 10699 10691 10685 10674 10671 10668 10664 10658 10651 10643 10635 10629 10620 10612 10602 10591 10581 10569 10560 10555 10553 10551 10549 10548 10544 10540 10535 10533 10531 10529 10527 10523 10520 10519 10517
10736 10736 10734 10731 10727 10723 10718 10713 10709 10706 10701 10695 10690 10684 10678 10670 10664 10658 10654 10650 10643 10635 10629 10622 10615 10607 10596 10583 10574 10565 10554 10547 10542 10540 10539 10538 10533 10532 10530 10525 10519 10521 10520 10517 10515 10511 10507
10726 10725 10724 10720 10715 10713 10709 10704 10699 10696 10690 10684 10679 10674 10667 10662 10654 10649 10643 10639 10634 10626 10619 10614 10605 10598 10589 10579 10569 10559 10548 10541 10535 10532 10529 10527 10522 10520 10517 10516 10512 10511 10509 10508 10505 10503 10499
10713 10712 10711 10710 10707 10704 10700 10693 10690 10686 10679 10675 10669 10662 10657 10651 10643 10637 10632 10626 10622 10616 10610 10605 10597 10590 10583 10571 10563 10554 10544 10538 10529 10523 10519 10516 10512 10509 10506 10506 10502 10498 10497 10493 10491 10489 10488
10703 10702 10700 10697 10696 10692 10687 10683 10680 10676 10672 10665 10657 10653 10647 10640 10633 10627 10621 10615 10609 10603 10598 10593 10587 10579 10573 10564 10553 10545 10536 10530 10524 10517 10510 10507 10505 10501 10493 10492 10488 10486 10482 10477 10476 10474 10472
10691 10689 10686 10683 10682 10679 10675 10671 10668 10664 10659 10654 10648 10642 10637 10628 10621 10615 10609 10603 10598 10592 10585 10581 10575 10569 10560 10553 10543 10534 10527 10519 10511 10507 10503 10498 10494 10490 10486 10481 10479 10476 10470 10466 10464 10461 10457
10677 10675 10675 10671 10668 10665 10661 10658 10654 10651 10645 10641 10634 10628 10623 10615 10609 10604 10599 10592 10584 10579 10572 10564 10561 10557 10550 10543 10535 10523 10515 10507 10500 10492 10487 10483 10479 10475 10470 10467 10463 10457 10454 10450 10446 10445 10441
10663 10661 10661 10659 10655 10653 10647 10644 10639 10636 10632 10627 10620 10615 10609 10603 10596 10593 10588 10579 10571 10566 10559 10552 10546 10541 10536 10529 10522 10516 10507 10498 10490 10481 10472 10466 10460 10456 10451 10450 10448 10439 10431 10424 10423 10425 10414
10647 10647 10645 10644 10642 10639 10633 10628 10625 10621 10617 10612 10608 10602 10596 10590 10582 10580 10573 10565 10558 10551 10545 10538 10533 10524 10519 10513 10506 10501 10494 10485 10478 10471 10463 10455 10448 10443 10435 10431 10428 10419 10404 10397 10392 10394 10389
10631 10630 10630 10627 10625 10623 10620 10617 10612 10607 10604 10598 10593 10588 10581 10575 10571 10563 10557 10549 10542 10536 10529 10522 10514 10505 10501 10494 10489 10484 10476 10467 10460 10452 10444 10438 10430 10426 10418 10410 10404 10394 10386 10374 10368 10364 10361
10615 10615 10614 10613 10610 10609 10606 10603 10599 10594 10589 10582 10578 10571 10565 10557 10557 10551 10542 10534 10527 10520 10514 10505 10498 10492 10483 10474 10468 10462 10455 10449 10443 10436 10425 10418 10409 10401 10393 10382 10375 10368 10357 10349 10342 10337 10330